Content
SEND FEEDBACK

Daily
Averages
Monthly
Summary
United States of America

RAPID CITY, SOUTH DAKOTA


Home > North America > United States > South Dakota
Elevation: 3162 feet     Latitude: 44 03N     Longitude: 103 04W

WEATHER
 
SELECT A DAY
Number of Records: 204,205;   Date Range: 1/1/95 - 11/21/14
 
SHARE

PRINT THIS DATA

[ ← Previous Day ]
WEATHER ALMANAC - FEBRUARY 16, 2013
[ Next Day → ]
[ °C ]   °F
Weather ElementAverageHighLow
Temperature41.2 °F55.9 °F (12:52 pm)28 °F (1:52 am)
Dewpoint22.5 °F25 °F (8:52 am)16 °F (1:52 am)
Humidity49.8 %69 % (9:52 pm)29 % (12:52 pm)
Barometer29.97 in30.10 in (1:52 am)29.83 in (11:52 pm)
Wind Speed12.3 mph25.3 mph (10:52 am)
Wind Gust33.4 mph (12:52 pm)
Weather ElementAverage
Visibility10 mi
Wind DirectionWNW (280.4 °)

Weather ElementTotal
Precipitation---
Heating Degree Days23.1 (Base 65)
Averaged from 23 records on February 16, 2013
WEATHER CONDITIONS BREAKOUT
WIND DIRECTION BREAKOUT
WEATHER BY HOUR - FEBRUARY 16, 2013
[ °C ]   °F
Local TimeTemperatureDewpointHumidityBarometerVisibilityWind DirectionWind SpeedGust SpeedPrecipitationEventsConditions
1:52 AM28.0 °F16.0 °F61 %30.10 in10.0 miESE (110°)3.5 mphOvercast
2:52 AM28.0 °F18.0 °F66 %30.06 in10.0 miEast (90°)3.5 mphOvercast
3:52 AM32.0 °F19.9 °F61 %30.04 in10.0 miWNW (290°)6.9 mphMostly Cloudy
4:52 AM41.0 °F24.1 °F51 %30.01 in10.0 miNNW (330°)18.4 mphClear
5:52 AM42.1 °F24.1 °F49 %30.03 in10.0 miNW (320°)21.9 mph27.6 mphClear
6:52 AM39.0 °F24.1 °F55 %30.04 in10.0 miWNW (300°)10.4 mphOvercast
7:52 AM35.1 °F23.0 °F61 %30.06 in10.0 miESE (120°)4.6 mphMostly Cloudy
8:52 AM45.0 °F25.0 °F46 %30.04 in10.0 miNNW (330°)9.2 mphMostly Cloudy
9:52 AM48.9 °F24.1 °F38 %30.03 in10.0 miNNW (330°)15.0 mphOvercast
10:52 AM54.0 °F24.1 °F31 %30.01 in10.0 miNNW (340°)25.3 mph31.1 mphOvercast
11:52 AM55.0 °F25.0 °F31 %29.98 in10.0 miNNW (330°)20.7 mph29.9 mphClear
12:52 PM55.9 °F24.1 °F29 %29.96 in10.0 miNNW (340°)24.2 mph33.4 mphClear
1:52 PM55.9 °F24.1 °F29 %29.94 in10.0 miNNW (340°)23.0 mph28.8 mphClear
2:52 PM55.0 °F24.1 °F30 %29.93 in10.0 miNNW (340°)21.9 mph29.9 mphClear
3:52 PM54.0 °F24.1 °F31 %29.93 in10.0 miNNW (340°)19.6 mphClear
4:52 PM50.0 °F24.1 °F36 %29.91 in10.0 miNorth (350°)11.5 mphClear
5:52 PM39.0 °F21.9 °F50 %29.92 in10.0 miNorth (360°)13.8 mphClear
6:52 PM37.0 °F21.9 °F54 %29.94 in10.0 miWNW (290°)9.2 mphClear
7:52 PM30.9 °F21.0 °F67 %29.95 in10.0 miNW (310°)3.5 mphClear
8:52 PM32.0 °F21.0 °F64 %29.91 in10.0 miWNW (290°)4.6 mphClear
9:52 PM30.9 °F21.9 °F69 %29.88 in10.0 miWNW (300°)6.9 mphClear
10:52 PM30.9 °F21.0 °F67 %29.84 in10.0 miWNW (300°)4.6 mphClear
11:52 PM28.9 °F19.9 °F69 %29.83 in10.0 miCalmClear
Hourly data recorded from KRAP, located miles away from Rapid City, South Dakota







STORIES FROM OUR PARTNERS